Hourly Data Report for September 13, 2017

All times are specified in Local Standard Time (LST). Add 1 hour to adjust for Daylight Saving Time where and when it is observed.

CAPE DORSET A
NUNAVUT

64°13'49.000" N
76°31'30.000" W
48.20 m
2400637
71366
YTE

Related Data

No related data is available for this station

Download Data

Hourly Data (September 2017)
Hourly Data Report for September 13, 2017
Temp Definition
°C
Dew Point Temp Definition
°C
Rel Hum Definition
%
Wind Dir Definition
10's deg

Wind Spd Definition
km/h
Visibility Definition
km
Stn Press Definition
kPa
Hmdx Definition


Wind Chill Definition


Weather Definition


TIME
00:00 Legend Double Dagger 1.2 0.5 95 2 26 16.1 98.73     Rain
01:00 Legend Double Dagger 1.3 0.7 95 3 24 16.1 98.74     Rain
02:00 Legend Double Dagger 1.3 0.7 96 3 28 16.1 98.76     LegendNANA
03:00 Legend Double Dagger 1.2 1.0 98 4 30 16.1 98.81     LegendNANA
04:00 Legend Double Dagger 1.2 0.9 98 4 24 16.1 98.90     LegendNANA
05:00 Legend Double Dagger 1.2 0.6 96 5 32 16.1 98.98     LegendNANA
06:00 Legend Double Dagger 1.4 0.7 95 4 26 16.1 99.06     LegendNANA
07:00 Legend Double Dagger 1.5 0.8 95 5 26 16.1 99.12     LegendNANA
08:00 Legend Double Dagger 1.7 1.1 96 3 26 16.1 99.20     LegendNANA
09:00 Legend Double Dagger 1.9 1.2 95 3 32 16.1 99.24     LegendNANA
10:00 Legend Double Dagger 2.3 1.3 93 3 34 16.1 99.24     LegendNANA
11:00 Legend Double Dagger 2.9 1.7 92 3 32 16.1 99.27     LegendNANA
12:00 Legend Double Dagger 2.7 1.9 95 3 30 16.1 99.30     LegendNANA
13:00 Legend Double Dagger 3.0 1.8 92 3 32 16.1 99.29     LegendNANA
14:00 Legend Double Dagger 3.0 1.8 92 2 37 16.1 99.35     LegendNANA
15:00 Legend Double Dagger 3.0 1.7 91 1 30 16.1 99.39     LegendNANA
16:00 Legend Double Dagger 3.1 1.6 90 2 24 16.1 99.41     LegendNANA
17:00 Legend Double Dagger 2.9 1.6 91 1 21 16.1 99.46     LegendNANA
18:00 Legend Double Dagger 2.7 1.8 94 2 21 16.1 99.48     LegendNANA
19:00 Legend Double Dagger 2.6 1.6 93 1 24 16.1 99.51     LegendNANA
20:00 Legend Double Dagger 2.6 1.4 92 36 22 16.1 99.54     LegendNANA
21:00 Legend Double Dagger 2.5 1.3 92 35 18 16.1 99.55     LegendNANA
22:00 Legend Double Dagger 2.4 1.4 93 1 17 16.1 99.52     LegendNANA
23:00 Legend Double Dagger 2.1 1.2 94 1 15 16.1 99.50     LegendNANA

Notes on Data Quality.

Legend

  • E = Estimated
  • M = Missing
  • NA = Not Available
  • ‡ = Partner data that is not subject to review by the National Climate Archives
Date modified: